Regional Weather Roundup
Issued by NWS

Home | Current Version | Previous Version | Graphics & Text | Print | Product List | Glossary On
Versions: 1 2 3 4 5 6 7 8 9 10 11 12 13 14 15 16 17 18 19 20 21 22 23 24 25 26 27 28 29 30 31 32 33 34 35 36 37 38 39 40 41 42 43 44 45 46 47 48 49 50
000
ASUS43 KDTX 011401
RWRMI
MICHIGAN HOURLY REGIONAL WEATHER ROUNDUP
NATIONAL WEATHER SERVICE DETROIT/PONTIAC MI
1000 AM EDT SUN MAY 01 2016

NOTE: "FAIR" INDICATES FEW OR NO CLOUDS BELOW 12,000 FEET WITH NO
SIGNIFICANT WEATHER AND/OR OBSTRUCTION TO VISIBILITY.

MIZ047>049-052>055-059>063-066>070-074>076-081>083-011500-
SOUTHEAST LOWER MICHIGAN

CITY           SKY/WX    TMP DP  RH WIND       PRES   REMARKS
ADRIAN         FOG       49  49 100 E7        29.95R VSB 3/4
ALMA           LGT RAIN  44  43  98 N7        30.03S
ANN ARBOR      CLOUDY    48  47  96 NE7       29.95S FOG
BAD AXE        CLOUDY    43  42  96 NE10G16   30.03S
CARO           MIX PCPN  46  44  95 NE7       30.00S
DETROIT CITY   CLOUDY    49  47  93 NE6       29.96S FOG
DETROIT        DRIZZLE   49  48  97 NE7       29.96S FOG
FLINT          CLOUDY    49  44  83 NE8       29.99R HAZE
GROSSE ILE     CLOUDY    48  46  93 NE8       29.94S FOG
HILLSDALE      CLOUDY    49  48  99 CALM      29.95R FOG
HOWELL         CLOUDY    46  46  99 NE9       29.97S FOG

CITY           SKY/WX    TMP DP  RH WIND       PRES   REMARKS
JACKSON        CLOUDY    48  47  96 NE7       29.96R FOG
LAMBERTVILLE   FOG       51  49  95 NE3       29.95S VSB 3/4
LANSING        CLOUDY    46  44  93 NE14      29.98S FOG
LAPEER         CLOUDY    46  44  95 NE9       29.98S FOG
MASON          CLOUDY    46  45  97 NE8       29.97R FOG
MONROE         FOG       49  49 100 NE8       29.93S VSB 1
PONTIAC        LGT RAIN  47  45  93 NE5       29.97R FOG
PORT HOPE        N/A     43  40  89 NE20      30.02R
PORT HURON     CLOUDY    45  45 100 N7        29.98R FOG
TRI CITIES     LGT RAIN  46  43  89 NE17      30.02R VSB 1
MIDLAND        CLOUDY    45  44  96 NE9       30.03R FOG
TROY           CLOUDY    48  47  97 NE8       29.98S FOG
SAGINAW HB     CLOUDY    45  43  93 NE14      30.01R FOG
$$
MIZ043>046-050>051-056>058-064>065-071>073-077>080-011500-
SOUTHWEST LOWER MICHIGAN

CITY           SKY/WX    TMP DP  RH WIND       PRES   REMARKS
BATTLE CREEK   CLOUDY    47  45  93 NE8       29.98R
BENTON HARBOR  CLOUDY    48  46  93 NE6       29.97R FOG
BIG RAPIDS     CLOUDY    44  40  88 NE7       30.04R FOG
COLDWATER      CLOUDY    49  49 100 NE6       29.96R FOG
FREMONT        CLOUDY    46  44  93 NE12      30.03R
HOLLAND        CLOUDY    48  45  89 NE13G20   29.99S
GRAND RAPIDS   DRIZZLE   48  45  89 NE12      30.00R FOG
IONIA          LGT RAIN  44  44  98 NE14G21   29.99S
KALAMAZOO      CLOUDY    47  44  90 NE6       29.99R FOG
LUDINGTON      CLOUDY    46  38  74 NE9       30.06S
MARSHALL       CLOUDY    47  46  96 N3        29.97R
MOUNT PLEASANT CLOUDY    45  44  97 NE8       30.03R FOG
MUSKEGON       CLOUDY    48  43  82 NE14G20   30.01R
$$
MIZ016>042-011500-
NORTHERN LOWER MICHIGAN

CITY           SKY/WX    TMP DP  RH WIND       PRES   REMARKS
ALPENA         LGT RAIN  45  41  86 E7        30.11R
BEAVER ISLAND  CLOUDY    47  33  58 E9G18     30.13R
BELLAIRE       CLOUDY    48  39  70 E6        30.10R
CADILLAC       DRIZZLE   43  40  89 N9        30.05S
CHARLEVOIX     CLOUDY    49  33  54 NE7       30.13S
FRANKFORT      CLOUDY    48  42  77 E5        30.08R
GAYLORD        LGT RAIN  45  37  73 NE9       30.09R
HARBOR SPRINGS CLOUDY    49  32  52 E12       30.11R
HOUGHTON LAKE  LGT RAIN  45  40  82 NE13      30.06R
MANISTEE       CLOUDY    46  36  66 E12       30.08R
OSCODA         LGT RAIN  44  41  90 NE14G22   30.07R
PELLSTON       CLOUDY    49  32  52 E12       30.12R
ROGERS CITY    LGT RAIN  43  35  74 NE3       30.13S
TRAVERSE CITY  LGT RAIN  47  40  76 E6        30.08R
$$
MIZ007>008-015-011500-
EASTERN UPPER MICHIGAN

CITY           SKY/WX    TMP DP  RH WIND       PRES   REMARKS
KINROSS          N/A     50  32  50 E9        30.13S
MACKINAC ISLAN CLOUDY    48  32  54 E10G17    30.12S
NEWBERRY       MOSUNNY   48  35  60 NE6       30.14S
S. S. MARIE    CLOUDY    50  31  48 NE12      30.14R
MUNISING         N/A     42  37  82 N6        30.16R
$$
MIZ004>006-011>014-085-011500-
CENTRAL UPPER MICHIGAN

CITY           SKY/WX    TMP DP  RH WIND       PRES   REMARKS
MANISTIQUE     MOSUNNY   50  34  53 NE9G16    30.13R
ESCANABA       CLOUDY    48  34  57 NE8G16    30.13R
MENOMINEE      CLOUDY    46  34  61 NE8       30.12R
SAWYER-GWINN   SUNNY     41  36  81 NE15      30.18R
$$
MIZ001>003-009>011-084-011500-
WESTERN UPPER MICHIGAN

CITY           SKY/WX    TMP DP  RH WIND       PRES   REMARKS
IRON MOUNTAIN  MOSUNNY   48  33  56 NE7       30.13R
HOUGHTON       MOSUNNY   47  35  63 E9        30.20S
COPPER HARBOR    N/A     41  37  86 VRB3      30.23S
IRONWOOD         N/A     39  36  87 N6        30.19S WCI  35
$$

ABBREVIATIONS USED IN REMARKS
   TC - TEMPERATURE IN CELSIUS
  WCI - WIND CHILL INDEX
   HX - HEAT INDEX
  VSB - VISIBILITY




USA.gov is the U.S. government's official web portal to all federal, state and local government web resources and services.